owner,sensor,date,latitude,longitude,vertical_datum,wind_speed,wind_to_direction,wind_speed_of_gust,qcFlag 
TCOON,ioos:station:TCOON:013:1,2008-01-01T00:00:00Z,27.4847,-97.3181,0.0,3.7,79.0,4.4,'11111222,11111222,11111222' 
TCOON,ioos:station:TCOON:013:1,2008-01-01T01:00:00Z,27.4847,-97.3181,0.0,3.9,68.0,4.6,'11111222,11111222,11111222' 
TCOON,ioos:station:TCOON:013:1,2008-01-01T03:00:00Z,27.4847,-97.3181,0.0,2.7,100.0,3.1,'11111222,11111222,11111222' 
TCOON,ioos:station:TCOON:013:1,2008-01-01T04:00:00Z,27.4847,-97.3181,0.0,11.9,29.0,14.3,'11111222,11111222,11111222' 
TCOON,ioos:station:TCOON:013:1,2008-01-01T05:00:00Z,27.4847,-97.3181,0.0,15.3,41.0,18.9,'11111222,11111222,11111222' 
TCOON,ioos:station:TCOON:013:1,2008-01-01T06:00:00Z,27.4847,-97.3181,0.0,14.4,36.0,17.9,'11111222,11111222,11111222' 
TCOON,ioos:station:TCOON:013:1,2008-01-01T07:00:00Z,27.4847,-97.3181,0.0,13.8,44.0,18.3,'11111222,11111222,11111222' 
TCOON,ioos:station:TCOON:013:1,2008-01-01T08:00:00Z,27.4847,-97.3181,0.0,14.6,45.0,17.1,'11111222,11111222,11111222' 
TCOON,ioos:station:TCOON:013:1,2008-01-01T09:00:00Z,27.4847,-97.3181,0.0,15.3,44.0,19.0,'11111222,11111222,11111222' 
TCOON,ioos:station:TCOON:013:1,2008-01-01T10:00:00Z,27.4847,-97.3181,0.0,14.6,45.0,17.5,'11111222,11111222,11111222' 
TCOON,ioos:station:TCOON:013:1,2008-01-01T11:00:00Z,27.4847,-97.3181,0.0,13.4,43.0,17.7,'11111222,11111222,11111222' 
TCOON,ioos:station:TCOON:013:1,2008-01-01T12:00:00Z,27.4847,-97.3181,0.0,13.8,47.0,16.9,'11111222,11111222,11111222' 
TCOON,ioos:station:TCOON:013:1,2008-01-01T13:00:00Z,27.4847,-97.3181,0.0,12.9,40.0,16.6,'11111222,11111222,11111222' 
TCOON,ioos:station:TCOON:013:1,2008-01-01T14:00:00Z,27.4847,-97.3181,0.0,13.8,44.0,16.5,'11111222,11111222,11111222' 
TCOON,ioos:station:TCOON:013:1,2008-01-01T15:00:00Z,27.4847,-97.3181,0.0,11.4,33.0,14.7,'11111222,11111222,11111222' 
TCOON,ioos:station:TCOON:013:1,2008-01-01T16:00:00Z,27.4847,-97.3181,0.0,11.8,36.0,14.9,'11111222,11111222,11111222' 
TCOON,ioos:station:TCOON:013:1,2008-01-01T17:00:00Z,27.4847,-97.3181,0.0,10.0,38.0,13.5,'11111222,11111222,11111222' 
TCOON,ioos:station:TCOON:013:1,2008-01-01T18:00:00Z,27.4847,-97.3181,0.0,9.3,35.0,10.6,'11111222,11111222,11111222' 
TCOON,ioos:station:TCOON:013:1,2008-01-01T19:00:00Z,27.4847,-97.3181,0.0,7.9,36.0,10.2,'11111222,11111222,11111222' 
TCOON,ioos:station:TCOON:013:1,2008-01-01T20:00:00Z,27.4847,-97.3181,0.0,8.7,39.0,10.1,'11111222,11111222,11111222' 
TCOON,ioos:station:TCOON:013:1,2008-01-01T21:00:00Z,27.4847,-97.3181,0.0,8.3,41.0,9.8,'11111222,11111222,11111222' 
TCOON,ioos:station:TCOON:013:1,2008-01-01T22:00:00Z,27.4847,-97.3181,0.0,6.2,50.0,8.4,'11111222,11111222,11111222' 
TCOON,ioos:station:TCOON:013:1,2008-01-01T23:00:00Z,27.4847,-97.3181,0.0,7.7,40.0,9.8,'11111222,11111222,11111222' 
TCOON,ioos:station:TCOON:013:1,2008-01-02T00:00:00Z,27.4847,-97.3181,0.0,8.2,36.0,10.0,'11111222,11111222,11111222' 
TCOON,ioos:station:TCOON:013:1,2008-01-02T01:00:00Z,27.4847,-97.3181,0.0,8.1,35.0,10.1,'11111222,11111222,11111222' 
TCOON,ioos:station:TCOON:013:1,2008-01-02T02:00:00Z,27.4847,-97.3181,0.0,7.3,43.0,9.7,'11111222,11111222,11111222' 
TCOON,ioos:station:TCOON:013:1,2008-01-02T03:00:00Z,27.4847,-97.3181,0.0,6.7,54.0,11.1,'11111222,11111222,11111222' 
TCOON,ioos:station:TCOON:013:1,2008-01-02T04:00:00Z,27.4847,-97.3181,0.0,6.1,55.0,7.7,'11111222,11111222,11111222' 
TCOON,ioos:station:TCOON:013:1,2008-01-02T05:00:00Z,27.4847,-97.3181,0.0,7.7,49.0,9.5,'11111222,11111222,11111222' 
TCOON,ioos:station:TCOON:013:1,2008-01-02T06:00:00Z,27.4847,-97.3181,0.0,7.6,52.0,9.2,'11111222,11111222,11111222' 
TCOON,ioos:station:TCOON:013:1,2008-01-02T07:00:00Z,27.4847,-97.3181,0.0,7.1,47.0,9.0,'11111222,11111222,11111222' 
TCOON,ioos:station:TCOON:013:1,2008-01-02T08:00:00Z,27.4847,-97.3181,0.0,8.5,45.0,10.3,'11111222,11111222,11111222' 
TCOON,ioos:station:TCOON:013:1,2008-01-02T09:00:00Z,27.4847,-97.3181,0.0,8.3,45.0,10.2,'11111222,11111222,11111222' 
TCOON,ioos:station:TCOON:013:1,2008-01-02T10:00:00Z,27.4847,-97.3181,0.0,9.0,35.0,11.0,'11111222,11111222,11111222' 
TCOON,ioos:station:TCOON:013:1,2008-01-02T11:00:00Z,27.4847,-97.3181,0.0,9.6,33.0,11.5,'11111222,11111222,11111222' 
TCOON,ioos:station:TCOON:013:1,2008-01-02T12:00:00Z,27.4847,-97.3181,0.0,11.3,40.0,12.7,'11111222,11111222,11111222' 
TCOON,ioos:station:TCOON:013:1,2008-01-02T13:00:00Z,27.4847,-97.3181,0.0,10.6,43.0,12.7,'11111222,11111222,11111222' 
TCOON,ioos:station:TCOON:013:1,2008-01-02T14:00:00Z,27.4847,-97.3181,0.0,11.2,42.0,13.0,'11111222,11111222,11111222' 
TCOON,ioos:station:TCOON:013:1,2008-01-02T15:00:00Z,27.4847,-97.3181,0.0,9.8,47.0,11.6,'11111222,11111222,11111222' 
TCOON,ioos:station:TCOON:013:1,2008-01-02T16:00:00Z,27.4847,-97.3181,0.0,10.5,47.0,12.3,'11111222,11111222,11111222' 
TCOON,ioos:station:TCOON:013:1,2008-01-02T17:00:00Z,27.4847,-97.3181,0.0,9.8,34.0,11.7,'11111222,11111222,11111222' 
TCOON,ioos:station:TCOON:013:1,2008-01-02T18:00:00Z,27.4847,-97.3181,0.0,8.8,43.0,10.8,'11111222,11111222,11111222' 
TCOON,ioos:station:TCOON:013:1,2008-01-02T19:00:00Z,27.4847,-97.3181,0.0,6.9,35.0,8.4,'11111222,11111222,11111222' 
TCOON,ioos:station:TCOON:013:1,2008-01-02T20:00:00Z,27.4847,-97.3181,0.0,5.9,30.0,7.6,'11111222,11111222,11111222' 
TCOON,ioos:station:TCOON:013:1,2008-01-02T21:00:00Z,27.4847,-97.3181,0.0,6.3,31.0,7.5,'11111222,11111222,11111222' 
TCOON,ioos:station:TCOON:013:1,2008-01-02T22:00:00Z,27.4847,-97.3181,0.0,5.9,40.0,6.6,'11111222,11111222,11111222' 
TCOON,ioos:station:TCOON:013:1,2008-01-02T23:00:00Z,27.4847,-97.3181,0.0,4.2,63.0,5.4,'11111222,11111222,11111222' 
TCOON,ioos:station:TCOON:013:1,2008-01-03T00:00:00Z,27.4847,-97.3181,0.0,3.3,62.0,4.5,'11111222,11111222,11111222' 
TCOON,ioos:station:TCOON:013:1,2008-01-03T01:00:00Z,27.4847,-97.3181,0.0,4.9,59.0,5.8,'11111222,11111222,11111222' 
TCOON,ioos:station:TCOON:013:1,2008-01-03T02:00:00Z,27.4847,-97.3181,0.0,5.8,50.0,6.8,'11111222,11111222,11111222' 
TCOON,ioos:station:TCOON:013:1,2008-01-03T03:00:00Z,27.4847,-97.3181,0.0,6.2,48.0,7.8,'11111222,11111222,11111222' 
TCOON,ioos:station:TCOON:013:1,2008-01-03T04:00:00Z,27.4847,-97.3181,0.0,5.4,57.0,6.7,'11111222,11111222,11111222' 
TCOON,ioos:station:TCOON:013:1,2008-01-03T05:00:00Z,27.4847,-97.3181,0.0,6.8,43.0,8.0,'11111222,11111222,11111222' 
TCOON,ioos:station:TCOON:013:1,2008-01-03T06:00:00Z,27.4847,-97.3181,0.0,6.5,44.0,8.3,'11111222,11111222,11111222' 
TCOON,ioos:station:TCOON:013:1,2008-01-03T07:00:00Z,27.4847,-97.3181,0.0,6.2,35.0,8.0,'11111222,11111222,11111222' 
TCOON,ioos:station:TCOON:013:1,2008-01-03T08:00:00Z,27.4847,-97.3181,0.0,6.5,40.0,8.0,'11111222,11111222,11111222' 
TCOON,ioos:station:TCOON:013:1,2008-01-03T09:00:00Z,27.4847,-97.3181,0.0,7.9,44.0,9.2,'11111222,11111222,11111222' 
TCOON,ioos:station:TCOON:013:1,2008-01-03T10:00:00Z,27.4847,-97.3181,0.0,8.0,34.0,9.4,'11111222,11111222,11111222' 
TCOON,ioos:station:TCOON:013:1,2008-01-03T11:00:00Z,27.4847,-97.3181,0.0,6.9,34.0,8.0,'11111222,11111222,11111222' 
TCOON,ioos:station:TCOON:013:1,2008-01-03T12:00:00Z,27.4847,-97.3181,0.0,8.2,38.0,9.4,'11111222,11111222,11111222' 
TCOON,ioos:station:TCOON:013:1,2008-01-03T13:00:00Z,27.4847,-97.3181,0.0,8.0,38.0,9.7,'11111222,11111222,11111222' 
TCOON,ioos:station:TCOON:013:1,2008-01-03T14:00:00Z,27.4847,-97.3181,0.0,8.5,36.0,9.5,'11111222,11111222,11111222' 
TCOON,ioos:station:TCOON:013:1,2008-01-03T15:00:00Z,27.4847,-97.3181,0.0,8.1,36.0,9.3,'11111222,11111222,11111222' 
TCOON,ioos:station:TCOON:013:1,2008-01-03T16:00:00Z,27.4847,-97.3181,0.0,7.5,33.0,9.2,'11111222,11111222,11111222' 
TCOON,ioos:station:TCOON:013:1,2008-01-03T17:00:00Z,27.4847,-97.3181,0.0,6.0,29.0,7.5,'11111222,11111222,11111222' 
TCOON,ioos:station:TCOON:013:1,2008-01-03T18:00:00Z,27.4847,-97.3181,0.0,6.1,56.0,8.3,'11111222,11111222,11111222' 
TCOON,ioos:station:TCOON:013:1,2008-01-03T19:00:00Z,27.4847,-97.3181,0.0,6.8,61.0,9.0,'11111222,11111222,11111222' 
TCOON,ioos:station:TCOON:013:1,2008-01-03T20:00:00Z,27.4847,-97.3181,0.0,5.5,64.0,7.7,'11111222,11111222,11111222' 
TCOON,ioos:station:TCOON:013:1,2008-01-03T21:00:00Z,27.4847,-97.3181,0.0,5.7,87.0,7.1,'11111222,11111222,11111222' 
TCOON,ioos:station:TCOON:013:1,2008-01-03T22:00:00Z,27.4847,-97.3181,0.0,5.8,125.0,7.2,'11111222,11111222,11111222' 
TCOON,ioos:station:TCOON:013:1,2008-01-03T23:00:00Z,27.4847,-97.3181,0.0,4.7,133.0,6.6,'11111222,11111222,11111222' 
TCOON,ioos:station:TCOON:013:1,2008-01-04T00:00:00Z,27.4847,-97.3181,0.0,3.6,127.0,4.5,'11111222,11111222,11111222' 
TCOON,ioos:station:TCOON:013:1,2008-01-04T01:00:00Z,27.4847,-97.3181,0.0,2.3,167.0,2.8,'11111222,11111222,11111222' 
TCOON,ioos:station:TCOON:013:1,2008-01-04T02:00:00Z,27.4847,-97.3181,0.0,2.3,152.0,3.1,'11111222,11111222,11111222' 
TCOON,ioos:station:TCOON:013:1,2008-01-04T03:00:00Z,27.4847,-97.3181,0.0,2.8,152.0,3.8,'11111222,11111222,11111222' 
TCOON,ioos:station:TCOON:013:1,2008-01-04T04:00:00Z,27.4847,-97.3181,0.0,3.6,151.0,4.4,'11111222,11111222,11111222' 
TCOON,ioos:station:TCOON:013:1,2008-01-04T05:00:00Z,27.4847,-97.3181,0.0,3.5,155.0,4.7,'11111222,11111222,11111222' 
TCOON,ioos:station:TCOON:013:1,2008-01-04T06:00:00Z,27.4847,-97.3181,0.0,3.0,164.0,4.0,'11111222,11111222,11111222' 
TCOON,ioos:station:TCOON:013:1,2008-01-04T07:00:00Z,27.4847,-97.3181,0.0,1.8,142.0,2.4,'11111222,11111222,11111222' 
TCOON,ioos:station:TCOON:013:1,2008-01-04T08:00:00Z,27.4847,-97.3181,0.0,2.4,169.0,2.5,'11111222,11111222,11111222' 
TCOON,ioos:station:TCOON:013:1,2008-01-04T09:00:00Z,27.4847,-97.3181,0.0,2.1,158.0,2.5,'11111222,11111222,11111222' 
TCOON,ioos:station:TCOON:013:1,2008-01-04T10:00:00Z,27.4847,-97.3181,0.0,0.6,134.0,1.4,'11111222,11111222,11111222' 
TCOON,ioos:station:TCOON:013:1,2008-01-04T11:00:00Z,27.4847,-97.3181,0.0,0.6,32.0,1.0,'11111222,11111222,11111222' 
TCOON,ioos:station:TCOON:013:1,2008-01-04T12:00:00Z,27.4847,-97.3181,0.0,1.5,54.0,1.7,'11111222,11111222,11111222' 
TCOON,ioos:station:TCOON:013:1,2008-01-04T13:00:00Z,27.4847,-97.3181,0.0,0.5,72.0,0.8,'11111222,11111222,11111222' 
TCOON,ioos:station:TCOON:013:1,2008-01-04T14:00:00Z,27.4847,-97.3181,0.0,0.2,205.0,0.7,'11111222,11111222,11111222' 
TCOON,ioos:station:TCOON:013:1,2008-01-04T15:00:00Z,27.4847,-97.3181,0.0,3.6,163.0,4.6,'11111222,11111222,11111222' 
TCOON,ioos:station:TCOON:013:1,2008-01-04T16:00:00Z,27.4847,-97.3181,0.0,5.5,152.0,7.4,'11111222,11111222,11111222' 
TCOON,ioos:station:TCOON:013:1,2008-01-04T17:00:00Z,27.4847,-97.3181,0.0,6.6,147.0,8.5,'11111222,11111222,11111222' 
TCOON,ioos:station:TCOON:013:1,2008-01-04T18:00:00Z,27.4847,-97.3181,0.0,8.7,154.0,11.5,'11111222,11111222,11111222' 
TCOON,ioos:station:TCOON:013:1,2008-01-04T19:00:00Z,27.4847,-97.3181,0.0,6.5,148.0,10.3,'11111222,11111222,11111222' 
TCOON,ioos:station:TCOON:013:1,2008-01-04T20:00:00Z,27.4847,-97.3181,0.0,6.6,148.0,9.3,'11111222,11111222,11111222' 
TCOON,ioos:station:TCOON:013:1,2008-01-04T21:00:00Z,27.4847,-97.3181,0.0,6.9,156.0,9.3,'11111222,11111222,11111222' 
TCOON,ioos:station:TCOON:013:1,2008-01-04T22:00:00Z,27.4847,-97.3181,0.0,6.8,149.0,8.4,'11111222,11111222,11111222' 
TCOON,ioos:station:TCOON:013:1,2008-01-04T23:00:00Z,27.4847,-97.3181,0.0,5.6,141.0,6.4,'11111222,11111222,11111222' 
TCOON,ioos:station:TCOON:013:1,2008-01-05T00:00:00Z,27.4847,-97.3181,0.0,6.6,166.0,8.3,'11111222,11111222,11111222' 
TCOON,ioos:station:TCOON:013:1,2008-01-05T01:00:00Z,27.4847,-97.3181,0.0,4.5,147.0,5.5,'11111222,11111222,11111222' 
TCOON,ioos:station:TCOON:013:1,2008-01-05T02:00:00Z,27.4847,-97.3181,0.0,4.3,153.0,5.3,'11111222,11111222,11111222' 
TCOON,ioos:station:TCOON:013:1,2008-01-05T03:00:00Z,27.4847,-97.3181,0.0,3.8,153.0,4.5,'11111222,11111222,11111222' 
TCOON,ioos:station:TCOON:013:1,2008-01-05T04:00:00Z,27.4847,-97.3181,0.0,2.6,159.0,3.1,'11111222,11111222,11111222' 
TCOON,ioos:station:TCOON:013:1,2008-01-05T05:00:00Z,27.4847,-97.3181,0.0,4.6,164.0,5.5,'11111222,11111222,11111222' 
TCOON,ioos:station:TCOON:013:1,2008-01-05T06:00:00Z,27.4847,-97.3181,0.0,3.6,182.0,4.4,'11111222,11111222,11111222' 
TCOON,ioos:station:TCOON:013:1,2008-01-05T07:00:00Z,27.4847,-97.3181,0.0,4.1,180.0,5.0,'11111222,11111222,11111222' 
TCOON,ioos:station:TCOON:013:1,2008-01-05T08:00:00Z,27.4847,-97.3181,0.0,4.2,170.0,5.2,'11111222,11111222,11111222' 
TCOON,ioos:station:TCOON:013:1,2008-01-05T09:00:00Z,27.4847,-97.3181,0.0,2.1,171.0,2.7,'11111222,11111222,11111222' 
TCOON,ioos:station:TCOON:013:1,2008-01-05T10:00:00Z,27.4847,-97.3181,0.0,4.7,161.0,6.0,'11111222,11111222,11111222' 
TCOON,ioos:station:TCOON:013:1,2008-01-05T11:00:00Z,27.4847,-97.3181,0.0,5.0,159.0,5.6,'11111222,11111222,11111222' 
TCOON,ioos:station:TCOON:013:1,2008-01-05T12:00:00Z,27.4847,-97.3181,0.0,5.1,165.0,5.8,'11111222,11111222,11111222' 
TCOON,ioos:station:TCOON:013:1,2008-01-05T13:00:00Z,27.4847,-97.3181,0.0,2.8,180.0,3.1,'11111222,11111222,11111222' 
TCOON,ioos:station:TCOON:013:1,2008-01-05T14:00:00Z,27.4847,-97.3181,0.0,1.3,190.0,1.6,'11111222,11111222,11111222' 
TCOON,ioos:station:TCOON:013:1,2008-01-05T15:00:00Z,27.4847,-97.3181,0.0,4.0,168.0,5.0,'11111222,11111222,11111222' 
TCOON,ioos:station:TCOON:013:1,2008-01-05T16:00:00Z,27.4847,-97.3181,0.0,5.2,182.0,8.1,'11111222,11111222,11111222' 
TCOON,ioos:station:TCOON:013:1,2008-01-05T17:00:00Z,27.4847,-97.3181,0.0,6.0,201.0,7.1,'11111222,11111222,11111222' 
TCOON,ioos:station:TCOON:013:1,2008-01-05T18:00:00Z,27.4847,-97.3181,0.0,7.9,182.0,9.9,'11111222,11111222,11111222' 
TCOON,ioos:station:TCOON:013:1,2008-01-05T19:00:00Z,27.4847,-97.3181,0.0,5.7,164.0,7.1,'11111222,11111222,11111222' 
TCOON,ioos:station:TCOON:013:1,2008-01-05T20:00:00Z,27.4847,-97.3181,0.0,7.4,165.0,9.4,'11111222,11111222,11111222' 
TCOON,ioos:station:TCOON:013:1,2008-01-05T21:00:00Z,27.4847,-97.3181,0.0,7.9,154.0,9.8,'11111222,11111222,11111222' 
TCOON,ioos:station:TCOON:013:1,2008-01-05T22:00:00Z,27.4847,-97.3181,0.0,8.7,153.0,11.5,'11111222,11111222,11111222' 
TCOON,ioos:station:TCOON:013:1,2008-01-05T23:00:00Z,27.4847,-97.3181,0.0,8.4,161.0,10.3,'11111222,11111222,11111222' 
TCOON,ioos:station:TCOON:013:1,2008-01-06T00:00:00Z,27.4847,-97.3181,0.0,7.8,164.0,9.9,'11111222,11111222,11111222' 
TCOON,ioos:station:TCOON:013:1,2008-01-06T01:00:00Z,27.4847,-97.3181,0.0,7.3,162.0,9.7,'11111222,11111222,11111222' 
TCOON,ioos:station:TCOON:013:1,2008-01-06T02:00:00Z,27.4847,-97.3181,0.0,6.3,158.0,7.8,'11111222,11111222,11111222' 
TCOON,ioos:station:TCOON:013:1,2008-01-06T03:00:00Z,27.4847,-97.3181,0.0,5.9,160.0,8.0,'11111222,11111222,11111222' 
TCOON,ioos:station:TCOON:013:1,2008-01-06T04:00:00Z,27.4847,-97.3181,0.0,7.0,159.0,8.7,'11111222,11111222,11111222' 
TCOON,ioos:station:TCOON:013:1,2008-01-06T05:00:00Z,27.4847,-97.3181,0.0,5.9,162.0,7.2,'11111222,11111222,11111222' 
TCOON,ioos:station:TCOON:013:1,2008-01-06T06:00:00Z,27.4847,-97.3181,0.0,6.1,166.0,8.3,'11111222,11111222,11111222' 
TCOON,ioos:station:TCOON:013:1,2008-01-06T07:00:00Z,27.4847,-97.3181,0.0,6.0,172.0,6.8,'11111222,11111222,11111222' 
TCOON,ioos:station:TCOON:013:1,2008-01-06T08:00:00Z,27.4847,-97.3181,0.0,6.0,174.0,7.6,'11111222,11111222,11111222' 
TCOON,ioos:station:TCOON:013:1,2008-01-06T09:00:00Z,27.4847,-97.3181,0.0,4.6,189.0,5.9,'11111222,11111222,11111222' 
TCOON,ioos:station:TCOON:013:1,2008-01-06T10:00:00Z,27.4847,-97.3181,0.0,4.0,168.0,5.0,'11111222,11111222,11111222' 
TCOON,ioos:station:TCOON:013:1,2008-01-06T11:00:00Z,27.4847,-97.3181,0.0,4.8,171.0,5.9,'11111222,11111222,11111222' 
TCOON,ioos:station:TCOON:013:1,2008-01-06T12:00:00Z,27.4847,-97.3181,0.0,4.7,178.0,6.1,'11111222,11111222,11111222' 
TCOON,ioos:station:TCOON:013:1,2008-01-06T13:00:00Z,27.4847,-97.3181,0.0,5.2,170.0,6.4,'11111222,11111222,11111222' 
TCOON,ioos:station:TCOON:013:1,2008-01-06T14:00:00Z,27.4847,-97.3181,0.0,7.1,164.0,8.3,'11111222,11111222,11111222' 
TCOON,ioos:station:TCOON:013:1,2008-01-06T15:00:00Z,27.4847,-97.3181,0.0,7.7,159.0,9.7,'11111222,11111222,11111222' 
TCOON,ioos:station:TCOON:013:1,2008-01-06T16:00:00Z,27.4847,-97.3181,0.0,7.5,155.0,11.1,'11111222,11111222,11111222' 
TCOON,ioos:station:TCOON:013:1,2008-01-06T17:00:00Z,27.4847,-97.3181,0.0,8.6,167.0,10.9,'11111222,11111222,11111222' 
TCOON,ioos:station:TCOON:013:1,2008-01-06T18:00:00Z,27.4847,-97.3181,0.0,8.0,172.0,10.4,'11111222,11111222,11111222' 
TCOON,ioos:station:TCOON:013:1,2008-01-06T19:00:00Z,27.4847,-97.3181,0.0,8.3,163.0,11.0,'11111222,11111222,11111222' 
TCOON,ioos:station:TCOON:013:1,2008-01-06T20:00:00Z,27.4847,-97.3181,0.0,9.4,161.0,12.8,'11111222,11111222,11111222' 
TCOON,ioos:station:TCOON:013:1,2008-01-06T21:00:00Z,27.4847,-97.3181,0.0,9.5,156.0,12.2,'11111222,11111222,11111222' 
TCOON,ioos:station:TCOON:013:1,2008-01-06T22:00:00Z,27.4847,-97.3181,0.0,8.3,157.0,11.7,'11111222,11111222,11111222' 
TCOON,ioos:station:TCOON:013:1,2008-01-06T23:00:00Z,27.4847,-97.3181,0.0,8.5,159.0,10.9,'11111222,11111222,11111222' 
TCOON,ioos:station:TCOON:013:1,2008-01-07T00:00:00Z,27.4847,-97.3181,0.0,7.3,149.0,9.5,'11111222,11111222,11111222' 
TCOON,ioos:station:TCOON:013:1,2008-01-07T01:00:00Z,27.4847,-97.3181,0.0,6.2,144.0,8.0,'11111222,11111222,11111222' 
TCOON,ioos:station:TCOON:013:1,2008-01-07T02:00:00Z,27.4847,-97.3181,0.0,5.0,140.0,6.9,'11111222,11111222,11111222' 
TCOON,ioos:station:TCOON:013:1,2008-01-07T03:00:00Z,27.4847,-97.3181,0.0,4.4,143.0,5.8,'11111222,11111222,11111222' 
TCOON,ioos:station:TCOON:013:1,2008-01-07T04:00:00Z,27.4847,-97.3181,0.0,6.4,145.0,8.9,'11111222,11111222,11111222' 
TCOON,ioos:station:TCOON:013:1,2008-01-07T05:00:00Z,27.4847,-97.3181,0.0,6.2,147.0,7.6,'11111222,11111222,11111222' 
TCOON,ioos:station:TCOON:013:1,2008-01-07T06:00:00Z,27.4847,-97.3181,0.0,7.3,153.0,8.9,'11111222,11111222,11111222' 
TCOON,ioos:station:TCOON:013:1,2008-01-07T07:00:00Z,27.4847,-97.3181,0.0,7.3,157.0,9.1,'11111222,11111222,11111222' 
TCOON,ioos:station:TCOON:013:1,2008-01-07T08:00:00Z,27.4847,-97.3181,0.0,7.7,159.0,9.6,'11111222,11111222,11111222' 
TCOON,ioos:station:TCOON:013:1,2008-01-07T09:00:00Z,27.4847,-97.3181,0.0,7.5,158.0,9.8,'11111222,11111222,11111222' 
TCOON,ioos:station:TCOON:013:1,2008-01-07T10:00:00Z,27.4847,-97.3181,0.0,6.9,161.0,8.4,'11111222,11111222,11111222' 
TCOON,ioos:station:TCOON:013:1,2008-01-07T11:00:00Z,27.4847,-97.3181,0.0,7.0,149.0,9.3,'11111222,11111222,11111222' 
TCOON,ioos:station:TCOON:013:1,2008-01-07T12:00:00Z,27.4847,-97.3181,0.0,4.9,161.0,6.4,'11111222,11111222,11111222' 
TCOON,ioos:station:TCOON:013:1,2008-01-07T13:00:00Z,27.4847,-97.3181,0.0,4.8,142.0,6.1,'11111222,11111222,11111222' 
TCOON,ioos:station:TCOON:013:1,2008-01-07T14:00:00Z,27.4847,-97.3181,0.0,5.1,137.0,6.2,'11111222,11111222,11111222' 
TCOON,ioos:station:TCOON:013:1,2008-01-07T15:00:00Z,27.4847,-97.3181,0.0,5.1,133.0,7.9,'11111222,11111222,11111222' 
TCOON,ioos:station:TCOON:013:1,2008-01-07T16:00:00Z,27.4847,-97.3181,0.0,6.4,132.0,9.3,'11111222,11111222,11111222' 
TCOON,ioos:station:TCOON:013:1,2008-01-07T17:00:00Z,27.4847,-97.3181,0.0,7.8,138.0,10.1,'11111222,11111222,11111222' 
TCOON,ioos:station:TCOON:013:1,2008-01-07T18:00:00Z,27.4847,-97.3181,0.0,8.2,148.0,13.8,'11111222,11111222,11111222' 
TCOON,ioos:station:TCOON:013:1,2008-01-07T19:00:00Z,27.4847,-97.3181,0.0,9.3,151.0,13.5,'11111222,11111222,11111222' 
TCOON,ioos:station:TCOON:013:1,2008-01-07T20:00:00Z,27.4847,-97.3181,0.0,11.0,155.0,14.0,'11111222,11111222,11111222' 
TCOON,ioos:station:TCOON:013:1,2008-01-07T21:00:00Z,27.4847,-97.3181,0.0,10.1,151.0,12.7,'11111222,11111222,11111222' 
TCOON,ioos:station:TCOON:013:1,2008-01-07T22:00:00Z,27.4847,-97.3181,0.0,11.6,153.0,14.7,'11111222,11111222,11111222' 
TCOON,ioos:station:TCOON:013:1,2008-01-07T23:00:00Z,27.4847,-97.3181,0.0,9.4,150.0,12.9,'11111222,11111222,11111222' 
TCOON,ioos:station:TCOON:013:1,2008-01-08T00:00:00Z,27.4847,-97.3181,0.0,8.4,156.0,10.4,'11111222,11111222,11111222' 
TCOON,ioos:station:TCOON:013:1,2008-01-08T01:00:00Z,27.4847,-97.3181,0.0,7.9,158.0,9.7,'11111222,11111222,11111222' 
TCOON,ioos:station:TCOON:013:1,2008-01-08T02:00:00Z,27.4847,-97.3181,0.0,5.8,155.0,7.9,'11111222,11111222,11111222' 
TCOON,ioos:station:TCOON:013:1,2008-01-08T03:00:00Z,27.4847,-97.3181,0.0,8.2,157.0,10.9,'11111222,11111222,11111222' 
TCOON,ioos:station:TCOON:013:1,2008-01-08T04:00:00Z,27.4847,-97.3181,0.0,7.1,153.0,10.1,'11111222,11111222,11111222' 
TCOON,ioos:station:TCOON:013:1,2008-01-08T05:00:00Z,27.4847,-97.3181,0.0,7.3,152.0,8.7,'11111222,11111222,11111222' 
TCOON,ioos:station:TCOON:013:1,2008-01-08T06:00:00Z,27.4847,-97.3181,0.0,6.0,159.0,7.8,'11111222,11111222,11111222' 
TCOON,ioos:station:TCOON:013:1,2008-01-08T07:00:00Z,27.4847,-97.3181,0.0,6.4,160.0,8.4,'11111222,11111222,11111222' 
TCOON,ioos:station:TCOON:013:1,2008-01-08T08:00:00Z,27.4847,-97.3181,0.0,7.6,159.0,10.0,'11111222,11111222,11111222' 
TCOON,ioos:station:TCOON:013:1,2008-01-08T09:00:00Z,27.4847,-97.3181,0.0,7.1,156.0,9.2,'11111222,11111222,11111222' 
TCOON,ioos:station:TCOON:013:1,2008-01-08T10:00:00Z,27.4847,-97.3181,0.0,7.1,154.0,9.5,'11111222,11111222,11111222' 
TCOON,ioos:station:TCOON:013:1,2008-01-08T11:00:00Z,27.4847,-97.3181,0.0,3.9,158.0,4.9,'11111222,11111222,11111222' 
TCOON,ioos:station:TCOON:013:1,2008-01-08T12:00:00Z,27.4847,-97.3181,0.0,4.7,157.0,5.8,'11111222,11111222,11111222' 
TCOON,ioos:station:TCOON:013:1,2008-01-08T13:00:00Z,27.4847,-97.3181,0.0,4.2,152.0,5.3,'11111222,11111222,11111222' 
TCOON,ioos:station:TCOON:013:1,2008-01-08T14:00:00Z,27.4847,-97.3181,0.0,4.1,153.0,5.1,'11111222,11111222,11111222' 
TCOON,ioos:station:TCOON:013:1,2008-01-08T15:00:00Z,27.4847,-97.3181,0.0,4.0,160.0,5.9,'11111222,11111222,11111222' 
TCOON,ioos:station:TCOON:013:1,2008-01-08T16:00:00Z,27.4847,-97.3181,0.0,4.8,171.0,7.1,'11111222,11111222,11111222' 
TCOON,ioos:station:TCOON:013:1,2008-01-08T17:00:00Z,27.4847,-97.3181,0.0,3.8,169.0,4.9,'11111222,11111222,11111222' 
TCOON,ioos:station:TCOON:013:1,2008-01-08T18:00:00Z,27.4847,-97.3181,0.0,2.6,146.0,3.3,'11111222,11111222,11111222' 
TCOON,ioos:station:TCOON:013:1,2008-01-08T19:00:00Z,27.4847,-97.3181,0.0,2.8,117.0,3.2,'11111222,11111222,11111222' 
TCOON,ioos:station:TCOON:013:1,2008-01-08T20:00:00Z,27.4847,-97.3181,0.0,3.1,102.0,3.3,'11111222,11111222,11111222' 
TCOON,ioos:station:TCOON:013:1,2008-01-08T21:00:00Z,27.4847,-97.3181,0.0,2.8,117.0,3.1,'11111222,11111222,11111222' 
TCOON,ioos:station:TCOON:013:1,2008-01-08T22:00:00Z,27.4847,-97.3181,0.0,3.0,110.0,3.5,'11111222,11111222,11111222' 
TCOON,ioos:station:TCOON:013:1,2008-01-08T23:00:00Z,27.4847,-97.3181,0.0,3.9,118.0,4.5,'11111222,11111222,11111222' 
TCOON,ioos:station:TCOON:013:1,2008-01-09T00:00:00Z,27.4847,-97.3181,0.0,3.1,10.0,3.8,'11111222,11111222,11111222' 
TCOON,ioos:station:TCOON:013:1,2008-01-09T01:00:00Z,27.4847,-97.3181,0.0,8.0,67.0,9.9,'11111222,11111222,11111222' 
TCOON,ioos:station:TCOON:013:1,2008-01-09T02:00:00Z,27.4847,-97.3181,0.0,8.6,54.0,10.4,'11111222,11111222,11111222' 
TCOON,ioos:station:TCOON:013:1,2008-01-09T03:00:00Z,27.4847,-97.3181,0.0,9.5,41.0,11.6,'11111222,11111222,11111222' 
TCOON,ioos:station:TCOON:013:1,2008-01-09T04:00:00Z,27.4847,-97.3181,0.0,11.5,41.0,13.4,'11111222,11111222,11111222' 
TCOON,ioos:station:TCOON:013:1,2008-01-09T05:00:00Z,27.4847,-97.3181,0.0,9.9,45.0,12.4,'11111222,11111222,11111222' 
TCOON,ioos:station:TCOON:013:1,2008-01-09T06:00:00Z,27.4847,-97.3181,0.0,9.5,52.0,11.2,'11111222,11111222,11111222' 
TCOON,ioos:station:TCOON:013:1,2008-01-09T07:00:00Z,27.4847,-97.3181,0.0,12.1,46.0,14.5,'11111222,11111222,11111222' 
TCOON,ioos:station:TCOON:013:1,2008-01-09T08:00:00Z,27.4847,-97.3181,0.0,11.0,45.0,12.7,'11111222,11111222,11111222' 
TCOON,ioos:station:TCOON:013:1,2008-01-09T09:00:00Z,27.4847,-97.3181,0.0,10.0,36.0,12.5,'11111222,11111222,11111222' 
TCOON,ioos:station:TCOON:013:1,2008-01-09T10:00:00Z,27.4847,-97.3181,0.0,10.0,32.0,11.8,'11111222,11111222,11111222' 
TCOON,ioos:station:TCOON:013:1,2008-01-09T11:00:00Z,27.4847,-97.3181,0.0,10.8,31.0,12.8,'11111222,11111222,11111222' 
TCOON,ioos:station:TCOON:013:1,2008-01-09T12:00:00Z,27.4847,-97.3181,0.0,10.3,45.0,12.1,'11111222,11111222,11111222' 